Flag for Canada Weather past 2 weeks in Timmins, Ontario, Canada

Now
54 °F

Passing clouds.


Feels Like: 53 °F
Forecast: 52 / 73 °F
Wind: 3 mph from Southwest

Location: Timmins

Current Time: Sep 3, 2014 at 3:04:33 AM

Latest Report: Sep 3, 2014 at 2:00 AM


Visibility: 15 mi

Pressure: 29.78 "Hg

Humidity: 88%

Dew point: 50 °F

Location of TimminsLocation

Historic Weather in Timmins — Graph

°F

Timmins temperature yesterday

Maximum temperature yesterday: 73 °F (at 2:00 PM)
Minimum temperature yesterday: 57 °F (at 11:00 PM)
Average temperature yesterday: 63 °F

Past Weeks' High & Low Weather Summary

 TemperatureHumidityPressure
High81 °F (Aug 23, 5:00 PM)100% (Aug 19, 4:00 AM)30.23 "Hg (Aug 19, 4:00 AM)
Low45 °F (Aug 29, 6:00 AM)38% (Aug 28, 4:00 PM)29.51 "Hg (Sep 1, 9:00 PM)
Average62 °F85%29.96 "Hg
* Reported Aug 19 2:00 AM — Sep 3 2:00 AM, Timmins, Weather by CustomWeather, © 2014

Note: Actual official high and low records may vary slightly from our data, if they occured in-between our weather recording intervals... More about our weather records

Advertising

Timmins weather history for previous 24 hours

 ConditionsComfort  
Time TempWeatherWind HumidityBarometerVisibility
2:00 AM
Sep 3
54 °FPassing clouds.3 mph88%29.78 "Hg15 mi
1:00 AM54 °FPassing clouds.3 mph94%29.78 "Hg15 mi
12:00 AM55 °FPassing clouds.3 mph88%29.76 "Hg15 mi
11:00 PM
Sep 2
57 °FPassing clouds.5 mph88%29.75 "Hg15 mi
10:00 PM59 °FPassing clouds.5 mph82%29.75 "Hg15 mi
9:00 PM59 °FScattered clouds.3 mph82%29.73 "Hg15 mi
8:00 PM63 °FPartly sunny.6 mph83%29.71 "Hg15 mi
7:00 PM64 °FBroken clouds.5 mph83%29.71 "Hg15 mi
6:00 PM66 °FBroken clouds.6 mph78%29.71 "Hg15 mi
5:52 PM64 °FBroken clouds.5 mph78%29.71 "Hg15 mi
5:00 PM66 °FBroken clouds.7 mph73%29.71 "Hg15 mi
4:00 PM63 °FSprinkles. Broken clouds.5 mph88%29.72 "Hg15 mi
3:00 PM70 °FPartly sunny.7 mph57%29.71 "Hg15 mi
2:00 PM73 °FPartly sunny.10 mph50%29.71 "Hg15 mi
1:00 PM72 °FPartly sunny.8 mph50%29.71 "Hg15 mi
12:00 PM68 °FPartly sunny.10 mph60%29.72 "Hg15 mi
11:00 AM68 °FPartly sunny.10 mph69%29.71 "Hg15 mi
10:00 AM64 °FPartly sunny.10 mph78%29.70 "Hg15 mi
9:00 AM61 °FPartly sunny.7 mph88%29.70 "Hg15 mi
8:00 AM59 °FDrizzle. Partly sunny.5 mph100%29.69 "Hg10 mi
7:00 AM59 °FPassing clouds.3 mph94%29.67 "Hg15 mi
6:00 AM61 °FDrizzle. Mostly cloudy.8 mph94%29.64 "Hg6 mi
5:00 AM61 °FPassing clouds.7 mph94%29.61 "Hg15 mi
4:00 AM61 °FPassing clouds.7 mph94%29.61 "Hg15 mi
3:00 AM61 °FOvercast.8 mph94%29.61 "Hg15 mi
Weather by CustomWeather, © 2014

See weather overviewHow to use our weather pages